Flag for United Kingdom Weather past 2 weeks in Durham, England, United Kingdom

Now
55 °F

Scattered clouds.


Feels Like: 53 °F
Forecast: 41 / 58 °F
Wind: 10 mph from West

Location: Newcastle

Current Time: May 26, 2015 at 11:38:01 AM

Latest Report: May 26, 2015 at 10:20 AM


Visibility: N/A

Pressure: 30.18 "Hg

Humidity: 63%

Dew point: 43 °F

Location of DurhamLocation

Historic Weather in Durham — Graph

°F

Durham temperature yesterday

Maximum temperature yesterday: 59 °F (at 3:20 PM)
Minimum temperature yesterday: 46 °F (at 1:20 AM)
Average temperature yesterday: 51 °F

Past Weeks' High & Low Weather Summary

 TemperatureHumidityPressure
High64 °F (May 23, 4:50 PM)100% (May 13, 11:20 PM)30.27 "Hg (May 13, 11:20 PM)
Low32 °F (May 14, 2:50 AM)36% (May 23, 7:20 PM)29.36 "Hg (May 19, 1:20 AM)
Average50 °F74%29.97 "Hg
* Reported May 11 10:20 AM — May 26 10:20 AM, Durham, Weather by CustomWeather, © 2015

Note: Actual official high and low records may vary slightly from our data, if they occured in-between our weather recording intervals... More about our weather records

Advertising

Durham weather history for previous 24 hours

 ConditionsComfort  
Time TempWeatherWind HumidityBarometerVisibility
10:20 AM
Tue, May 26
55 °FScattered clouds.10 mph63%30.18 "HgN/A
9:50 AM54 °FScattered clouds.13 mph63%30.15 "HgN/A
9:20 AM54 °FPassing clouds.10 mph72%30.15 "HgN/A
8:50 AM54 °FPassing clouds.10 mph72%30.15 "HgN/A
8:20 AM52 °FPassing clouds.10 mph67%30.15 "HgN/A
7:50 AM50 °FPassing clouds.9 mph71%30.15 "HgN/A
7:20 AM48 °FPassing clouds.9 mph82%30.15 "HgN/A
6:50 AM46 °FPassing clouds.9 mph93%30.12 "HgN/A
6:20 AM45 °FPassing clouds.9 mph100%30.12 "HgN/A
5:50 AM45 °FScattered clouds.8 mph100%30.12 "HgN/A
5:20 AM45 °FPassing clouds.6 mph100%30.12 "HgN/A
4:20 AM43 °FPassing clouds.5 mph100%30.12 "HgN/A
3:50 AM43 °FPassing clouds.3 mph100%30.12 "HgN/A
3:20 AM43 °FPassing clouds.3 mph100%30.12 "HgN/A
2:50 AM41 °FPassing clouds.5 mph100%30.12 "HgN/A
2:20 AM41 °FPassing clouds.3 mph100%30.12 "HgN/A
1:50 AM43 °FPassing clouds.3 mph100%30.12 "HgN/A
1:20 AM43 °FPassing clouds.3 mph100%30.12 "HgN/A
12:50 AM46 °FPassing clouds.No wind93%30.09 "HgN/A
12:20 AM46 °FPassing clouds.1 mph87%30.09 "HgN/A
11:50 PM
Mon, May 25
48 °FPassing clouds.7 mph87%30.09 "HgN/A
11:20 PM48 °FPassing clouds.7 mph82%30.09 "HgN/A
10:20 PM50 °FPassing clouds.5 mph76%30.09 "HgN/A
9:20 PM52 °FPassing clouds.3 mph67%30.07 "HgN/A
8:50 PM52 °FPassing clouds.3 mph67%30.07 "HgN/A
8:20 PM54 °FPassing clouds.3 mph63%30.04 "HgN/A
7:50 PM54 °FPassing clouds.3 mph63%30.04 "HgN/A
7:20 PM55 °FPassing clouds.5 mph55%30.04 "HgN/A
6:50 PM55 °FScattered clouds.6 mph55%30.04 "HgN/A
6:20 PM55 °FScattered clouds.7 mph55%30.04 "HgN/A
5:50 PM57 °FScattered clouds.7 mph55%30.04 "HgN/A
5:20 PM57 °FScattered clouds.7 mph55%30.04 "HgN/A
4:50 PM55 °FScattered clouds.7 mph59%30.04 "HgN/A
4:20 PM55 °FScattered clouds.7 mph63%30.04 "HgN/A
3:50 PM55 °FScattered clouds.10 mph63%30.04 "HgN/A
3:20 PM59 °FScattered clouds.9 mph59%30.01 "HgN/A
2:50 PM57 °FPartly sunny.9 mph63%30.04 "HgN/A
2:20 PM55 °FPartly sunny.9 mph67%30.04 "HgN/A
1:50 PM55 °FPartly sunny.10 mph72%30.04 "HgN/A
1:20 PM55 °FPartly sunny.10 mph72%30.04 "HgN/A
12:50 PM54 °FPartly sunny.9 mph72%30.04 "HgN/A
12:20 PM54 °FPartly sunny.10 mph72%30.04 "HgN/A
11:50 AM54 °FPartly sunny.9 mph72%30.04 "HgN/A
11:20 AM52 °FPartly sunny.8 mph77%30.04 "HgN/A
Weather by CustomWeather, © 2015

See weather overviewHow to use our weather pages